Back to catalog

GSLV R/B

AliveHEO
NORAD 58991·ROCKET BODY·🇮🇳 India

Launched Feb 17, 2024 from Satish Dhawan Space Centre

Loading…

Next Passes (next 24 hours)

TLE

FreshSource: Space-Track

Epoch: Sep 14, 2026, 15:06 UTC

1 58991U 24033B   26257.62925060  .00251380  36065-6  17940-2 0  9994
2 58991  19.3485  74.3281 5920839 117.1828 314.1447  4.27974654 29095

Track GSLV R/B in real time with AllMySat

Download on the App Store